Home   Weather   Lofoten   Past weeks
Flag for Norway

Past Weather in Lofoten, Norway — Yesterday and Last 2 Weeks

Now
56 °F

Cool.


Feels Like: 56 °F
Forecast: 64 / 53 °F
Wind: 5 mph from North

Location: Skrova Fyr

Current Time: Jul 21, 2019 at 12:15:37 am

Latest Report: Jul 20, 2019 at 11:00 pm


Visibility: N/A

Pressure: 29.91 "Hg

Humidity: 90%

Dew Point: 54 °F

Location of LofotenLocation

Past Weather in Lofoten — Graph

°F

Lofoten Temperature Yesterday

Maximum temperature yesterday: 67 °F (at 2:00 am)
Minimum temperature yesterday: 54 °F (at 9:00 am)
Average temperature yesterday: 59 °F

High & Low Weather Summary for the Past Weeks

 TemperatureHumidityPressure
High73 °F (Jul 19, 6:00 pm)97% (Jul 10, 4:00 am)30.06 "Hg (Jul 10, 4:00 am)
Low49 °F (Jul 6, 1:00 am)29% (Jul 8, 7:00 pm)29.65 "Hg (Jul 6, 8:00 pm)
Average56 °F71%29.92 "Hg
* Reported Jul 5 10:00 pm — Jul 20 10:00 pm, Lofoten. Weather by CustomWeather, © 2019

Note: Actual official high and low records may vary slightly from our data, if they occured in-between our weather recording intervals... More about our weather records

Advertising

Lofoten Weather History for the Previous 24 Hours

Scroll right to see more
 ConditionsComfort  
Time TempWeatherWind HumidityBarometerVisibility
10:00 pm
Sat, Jul 20
59 °FCool.2 mph86%29.91 "HgN/A
9:00 pm58 °FCool.8 mph85%29.91 "HgN/A
8:00 pm59 °FCool.1 mph86%29.93 "HgN/A
7:00 pm57 °FCool.2 mph91%29.93 "HgN/A
6:00 pm58 °FCool.2 mph85%29.94 "HgN/A
5:00 pm58 °FCool.5 mph86%29.95 "HgN/A
4:00 pm58 °FCool.3 mph88%29.94 "HgN/A
3:00 pm59 °FCool.2 mph84%29.94 "HgN/A
2:00 pm58 °FCool.2 mph85%29.95 "HgN/A
1:00 pm56 °FCool.2 mph92%29.94 "HgN/A
12:00 pm55 °FCool.5 mph95%29.94 "HgN/A
11:00 am55 °FCool.3 mph95%29.93 "HgN/A
10:00 am55 °FCool.3 mph97%29.92 "HgN/A
9:00 am54 °FCool.6 mph96%29.92 "HgN/A
8:00 am57 °FCool.7 mph92%29.90 "HgN/A
7:00 am58 °FCool.7 mph92%29.88 "HgN/A
6:00 am59 °FCool.5 mph84%29.88 "HgN/A
5:00 am61 °FCool.5 mph74%29.86 "HgN/A
4:00 am67 °FMild.5 mph53%29.85 "HgN/A
3:00 am67 °FMild.6 mph52%29.84 "HgN/A
2:00 am67 °FMild.6 mph50%29.83 "HgN/A
1:00 am63 °FMild.1 mph65%29.83 "HgN/A
12:00 am64 °FMild.2 mph65%29.83 "HgN/A
Weather by CustomWeather, © 2019

See weather overview